OK1TBF-15 Weather Reports


time (UTC)temp
F
wind
direction
speed
knots
gust
knots
rain 1hr
in
rain 24hr
in
rain mn
in
humidity
%
barometer
mb
20260508001405 51 0.0 0.0 0.00 0.00 0.00 79 1016.0
20260508000405 51 0.0 0.0 0.00 0.00 0.00 79 1016.2
20260507235405 51 0.0 0.0 0.00 0.00 0.00 76 1016.2
20260507234405 52 0.0 0.0 0.00 0.00 0.00 74 1016.0
20260507233405 52 0.0 0.0 0.00 0.00 0.00 74 1015.9
20260507232405 53 0.0 0.0 0.00 0.00 0.00 73 1016.1
20260507231405 53 0.0 0.0 0.00 0.00 0.00 72 1016.2
20260507230405 53 0.0 0.0 0.00 0.00 0.00 72 1016.2
20260507225406 53 0.0 0.0 0.00 0.00 0.00 72 1016.1
20260507224405 53 0.0 0.0 0.00 0.00 0.00 72 1016.1
20260507223405 53 0.0 0.0 0.00 0.00 0.00 72 1016.1
20260507222405 53 0.0 0.0 0.00 0.00 0.00 72 1016.1
20260507221405 53 0.0 0.0 0.00 0.00 0.00 71 1016.0
20260507220405 54 0.0 0.0 0.00 0.00 0.00 70 1016.0
20260507215405 54 0.0 0.0 0.00 0.00 0.00 69 1016.1
20260507214405 54 0.0 0.0 0.00 0.00 0.00 69 1016.0
20260507213406 54 0.0 0.0 0.00 0.00 0.00 68 1015.9
20260507212405 54 0.0 0.0 0.00 0.00 0.00 66 1015.9
20260507211405 54 0.0 0.0 0.00 0.00 0.00 66 1015.8
20260507210406 54 0.0 0.0 0.00 0.00 0.00 65 1015.7
20260507205405 54 0.0 0.0 0.00 0.00 0.00 64 1015.6
20260507204405 54 0.0 0.0 0.00 0.00 0.00 64 1015.4
20260507203412 54 0.0 0.0 0.00 0.00 0.00 64 1015.3
20260507202405 54 0.0 0.0 0.00 0.00 0.00 65 1015.1
20260507201407 54 0.0 0.0 0.00 0.00 0.00 65 1015.0
20260507200416 54 0.0 0.0 0.00 0.00 0.00 64 1015.0
20260507195405 54 0.0 0.0 0.00 0.00 0.00 63 1014.9
20260507194418 54 0.0 0.0 0.00 0.00 0.00 63 1014.8
20260507193604 55 0.0 0.0 0.00 0.00 0.00 62 1014.8
20260507192405 56 0.0 0.0 0.00 0.00 0.00 60 1014.7
20260507191406 56 0.0 0.0 0.00 0.00 0.00 58 1014.5
20260507190405 57 0.0 0.0 0.00 0.00 0.00 55 1014.2
20260507185405 57 0.0 0.0 0.00 0.00 0.00 53 1013.9
20260507184405 58 0.0 0.0 0.00 0.00 0.00 52 1013.8
20260507183408 58 0.0 0.0 0.00 0.00 0.00 52 1013.7
20260507182407 59 0.0 0.0 0.00 0.00 0.00 51 1013.6
20260507181406 59 0.0 0.0 0.00 0.00 0.00 49 1013.6
20260507180407 59 0.0 0.0 0.00 0.00 0.00 48 1013.4
20260507175406 59 0.0 0.0 0.00 0.00 0.00 48 1013.3
20260507174405 60 0.0 0.0 0.00 0.00 0.00 46 1013.3
20260507173405 61 0.0 0.0 0.00 0.00 0.00 44 1013.2
20260507172406 61 0.0 0.0 0.00 0.00 0.00 44 1013.1
20260507171405 61 0.0 0.0 0.00 0.00 0.00 44 1013.0
20260507170405 61 0.0 0.0 0.00 0.00 0.00 43 1013.0
20260507165405 62 0.0 0.0 0.00 0.00 0.00 43 1012.9
20260507164405 62 0.0 0.0 0.00 0.00 0.00 45 1012.9
20260507163406 62 0.0 0.0 0.00 0.00 0.00 44 1012.8
20260507162406 62 0.0 0.0 0.00 0.00 0.00 46 1012.8
20260507161405 62 0.0 0.0 0.00 0.00 0.00 46 1012.7
20260507160405 63 0.0 0.0 0.00 0.00 0.00 47 1012.7
20260507155405 62 0.0 0.0 0.00 0.00 0.00 46 1012.6
20260507154405 63 0.0 0.0 0.00 0.00 0.00 47 1012.6
20260507153404 63 0.0 0.0 0.00 0.00 0.00 45 1012.4
20260507152411 65 0.0 0.0 0.00 0.00 0.00 43 1012.3
20260507151403 65 0.0 0.0 0.00 0.00 0.00 44 1012.2
20260507150404 65 0.0 0.0 0.00 0.00 0.00 44 1012.2
20260507145403 65 0.0 0.0 0.00 0.00 0.00 43 1012.2
20260507144403 64 0.0 0.0 0.00 0.00 0.00 46 1012.3
20260507143403 63 0.0 0.0 0.00 0.00 0.00 44 1012.3
20260507142403 64 0.0 0.0 0.00 0.00 0.00 47 1012.4
20260507141408 64 0.0 0.0 0.00 0.00 0.00 46 1012.4
20260507140403 64 0.0 0.0 0.00 0.00 0.00 43 1012.4
20260507135403 64 0.0 0.0 0.00 0.00 0.00 44 1012.4
20260507134403 64 0.0 0.0 0.00 0.00 0.00 44 1012.3
20260507133409 66 0.0 0.0 0.00 0.00 0.00 43 1012.4
20260507132403 66 0.0 0.0 0.00 0.00 0.00 45 1012.4
20260507131404 65 0.0 0.0 0.00 0.00 0.00 43 1012.2
20260507130403 66 0.0 0.0 0.00 0.00 0.00 44 1012.5
20260507125403 66 0.0 0.0 0.00 0.00 0.00 43 1012.6
20260507124403 65 0.0 0.0 0.00 0.00 0.00 44 1012.5
20260507123403 66 0.0 0.0 0.00 0.00 0.00 44 1012.5
20260507122403 65 0.0 0.0 0.00 0.00 0.00 46 1012.4
20260507121403 66 0.0 0.0 0.00 0.00 0.00 44 1012.5
20260507120404 65 0.0 0.0 0.00 0.00 0.00 44 1012.4
20260507115403 64 0.0 0.0 0.00 0.00 0.00 45 1012.4
20260507114403 65 0.0 0.0 0.00 0.00 0.00 48 1012.5
20260507113405 65 0.0 0.0 0.00 0.00 0.00 46 1012.6
20260507112403 66 0.0 0.0 0.00 0.00 0.00 46 1012.5
20260507111404 65 0.0 0.0 0.00 0.00 0.00 48 1012.5
20260507110404 65 0.0 0.0 0.00 0.00 0.00 47 1012.5
20260507105403 65 0.0 0.0 0.00 0.00 0.00 48 1012.5
20260507104403 64 0.0 0.0 0.00 0.00 0.00 51 1012.5
20260507103403 63 0.0 0.0 0.00 0.00 0.00 48 1012.4
20260507102403 64 0.0 0.0 0.00 0.00 0.00 46 1012.3
20260507101403 64 0.0 0.0 0.00 0.00 0.00 50 1012.4
20260507100403 63 0.0 0.0 0.00 0.00 0.00 53 1012.4
20260507095403 62 0.0 0.0 0.00 0.00 0.00 52 1012.4
20260507094403 61 0.0 0.0 0.00 0.00 0.00 54 1012.3
20260507093403 62 0.0 0.0 0.00 0.00 0.00 56 1012.3
20260507092403 62 0.0 0.0 0.00 0.00 0.00 56 1012.2
20260507091403 62 0.0 0.0 0.00 0.00 0.00 56 1012.2
20260507090403 61 0.0 0.0 0.00 0.00 0.00 59 1012.1
20260507085404 60 0.0 0.0 0.00 0.00 0.00 60 1012.0
20260507084403 60 0.0 0.0 0.00 0.00 0.00 58 1012.0
20260507083403 60 0.0 0.0 0.00 0.00 0.00 61 1011.9
20260507082403 59 0.0 0.0 0.00 0.00 0.00 61 1011.9
20260507081403 59 0.0 0.0 0.00 0.00 0.00 62 1011.9
20260507080403 58 0.0 0.0 0.00 0.00 0.00 64 1011.8
20260507075403 57 0.0 0.0 0.00 0.00 0.00 65 1011.9
20260507074403 57 0.0 0.0 0.00 0.00 0.00 66 1011.9
20260507073403 57 0.0 0.0 0.00 0.00 0.00 67 1011.7
20260507072403 57 0.0 0.0 0.00 0.00 0.00 69 1011.7
20260507071403 57 0.0 0.0 0.00 0.00 0.00 68 1011.6
20260507070403 56 0.0 0.0 0.00 0.00 0.00 68 1011.5
20260507065403 57 0.0 0.0 0.00 0.00 0.00 67 1011.5
20260507064403 57 0.0 0.0 0.00 0.00 0.00 69 1011.3
20260507063403 56 0.0 0.0 0.00 0.00 0.00 70 1011.1
20260507062403 56 0.0 0.0 0.00 0.00 0.00 72 1011.1
20260507061404 55 0.0 0.0 0.00 0.00 0.00 73 1011.0
20260507060403 54 0.0 0.0 0.00 0.00 0.00 75 1010.9
20260507055403 54 0.0 0.0 0.00 0.00 0.00 76 1010.9
20260507054403 54 0.0 0.0 0.00 0.00 0.00 77 1010.8
20260507053403 54 0.0 0.0 0.00 0.00 0.00 80 1010.6
20260507052403 53 0.0 0.0 0.00 0.00 0.00 80 1010.4
20260507051403 53 0.0 0.0 0.00 0.00 0.00 80 1010.4
20260507050403 53 0.0 0.0 0.00 0.00 0.00 80 1010.3
20260507045403 53 0.0 0.0 0.00 0.00 0.00 81 1010.1
20260507044403 53 0.0 0.0 0.00 0.00 0.00 82 1009.9
20260507043403 53 0.0 0.0 0.00 0.00 0.00 82 1009.9
20260507042403 53 0.0 0.0 0.00 0.00 0.00 83 1009.8
20260507041403 52 0.0 0.0 0.00 0.00 0.00 83 1009.5
20260507040403 52 0.0 0.0 0.00 0.00 0.00 84 1009.4
20260507035403 52 0.0 0.0 0.00 0.00 0.00 84 1009.2
20260507034404 52 0.0 0.0 0.00 0.00 0.00 84 1009.2
20260507033403 52 0.0 0.0 0.00 0.00 0.00 84 1009.2
20260507032407 52 0.0 0.0 0.00 0.00 0.00 83 1009.1
20260507031745 52 0.0 0.0 0.00 0.00 0.00 82 1009.1
20260507030745 53 0.0 0.0 0.00 0.00 0.00 81 1009.1
20260507025745 53 0.0 0.0 0.00 0.00 0.00 80 1008.9
20260507024745 53 0.0 0.0 0.00 0.00 0.00 79 1008.7
20260507023745 53 0.0 0.0 0.00 0.00 0.00 75 1008.4
20260507022745 53 0.0 0.0 0.00 0.00 0.00 75 1008.2
20260507021745 53 0.0 0.0 0.00 0.00 0.00 76 1008.2
20260507020745 53 0.0 0.0 0.00 0.00 0.00 78 1008.2
20260507015745 53 0.0 0.0 0.00 0.00 0.00 80 1008.3
20260507014745 53 0.0 0.0 0.00 0.00 0.00 82 1008.2
20260507013745 53 0.0 0.0 0.00 0.00 0.00 82 1008.2
20260507012745 54 0.0 0.0 0.00 0.00 0.00 81 1008.3
20260507011745 54 0.0 0.0 0.00 0.00 0.00 80 1008.0
20260507010745 53 0.0 0.0 0.00 0.00 0.00 80 1007.8
20260507005745 54 0.0 0.0 0.00 0.00 0.00 80 1007.9
20260507004745 54 0.0 0.0 0.00 0.00 0.00 79 1007.8
20260507003745 54 0.0 0.0 0.00 0.00 0.00 79 1007.7
20260507002745 54 0.0 0.0 0.00 0.00 0.00 78 1007.3